#timestamp,LO_Frequency,Hit,StdDev 
1562436015.8,286046998.2,N
1562436035.6,286047000.9,N
1562436055.4,286047000.8,N
1562436075.3,286047000.1,N
1562436095.1,286046998.5,N
1562436115.9,286047001.2,N
1562436135.7,286047001.0,N
1562436155.5,286047001.0,N
1562436175.4,286047000.8,N
1562436195.2,286046998.9,N
1562436215.0,286046998.6,N
1562436215.9,286046998.6,N
1562436235.8,286046998.3,N
1562436255.6,286046998.6,N
1562436275.5,286047000.5,N
1562436295.3,286046998.2,N
1562436315.1,286046998.1,N
1562436335.9,286046998.2,N
1562436355.7,286047001.2,N
1562436375.5,286046998.1,N
1562436395.4,286046998.7,N
1562436415.2,286046998.8,N
1562436435.1,286047000.8,N
1562436436.0,286047000.8,N
1562436455.8,286047000.0,N
1562436475.6,286047002.4,N
1562436495.5,286047002.0,N
1562436515.3,286046999.8,N
1562436535.2,286047000.3,N
1562436555.9,286047002.4,N
1562436575.7,286047000.3,N
1562436595.6,286047000.1,N
1562436615.4,286047002.5,N
1562436635.2,286047004.1,N
1562436655.1,286047004.4,N
1562436656.0,286047004.4,N
1562436675.8,286047002.7,N
1562436695.7,286047000.0,N
1562436715.5,286047002.3,N
1562436735.3,286047001.3,N
1562436755.2,286047002.5,N
1562436775.0,286046999.7,N
1562436775.9,286046999.7,N
1562436795.8,286047000.6,N
1562436815.6,286047000.2,N
1562436835.4,286047002.3,N
1562436855.3,286047002.1,N
1562436875.1,286047002.4,N
1562436895.9,286046998.2,N
1562436915.7,286047002.8,N
1562436935.5,286047002.4,N
1562436955.4,286047000.1,N
1562436975.2,286047002.0,N
1562436995.0,286047002.1,N
1562436996.0,286047002.1,N
1562437015.8,286047004.4,N
1562437035.6,286047003.6,N
1562437055.5,286047003.2,N
1562437075.3,286047005.8,Y
1562437095.1,286047002.2,P
1562437115.9,286047002.3,P
1562437135.7,286046999.8,N
1562437155.6,286047002.0,N
1562437175.4,286047002.5,N
1562437195.2,286047002.7,N
1562437215.1,286047002.7,N
1562437216.0,286047002.7,Y
1562437235.8,286046998.1,P
1562437255.7,286046998.4,N
1562437275.5,286046999.4,N
1562437295.3,286046999.2,N
1562437315.2,286046999.1,N
1562437335.0,286046999.1,N
1562437335.9,286046999.1,N
1562437355.8,286046999.5,N
1562437375.6,286046999.2,N
1562437395.4,286046996.6,Y
1562437415.3,286046996.5,P
1562437435.1,286046996.6,N
1562437455.9,286046999.4,N
1562437475.7,286046996.8,N
1562437495.5,286046997.2,N
1562437515.4,286046997.5,N
1562437535.2,286046997.0,N
1562437555.0,286046999.1,N
1562437556.0,286046999.1,N
1562437575.8,286046999.2,N
1562437595.6,286046999.2,N
1562437615.5,286046999.6,N
1562437635.3,286046998.3,N
1562437655.1,286046999.4,N
1562437675.9,286046999.1,N
1562437695.7,286046999.6,N
1562437715.6,286046997.3,N
1562437735.4,286046996.6,Y
1562437755.2,286046998.7,P
1562437775.1,286046998.2,P
1562437776.0,286046998.2,P
1562437795.8,286046998.6,Y
1562437815.7,286047000.3,P
1562437835.5,286046999.8,N
1562437855.3,286047002.1,N
1562437875.2,286047002.4,N
1562437895.0,286046999.9,N
1562437895.9,286046999.9,N
1562437915.8,286046998.2,N
1562437935.6,286046998.1,N
1562437955.4,286047001.2,N
1562437975.3,286046999.9,N
1562437995.1,286047000.3,N
1562438015.8,286047000.8,N
1562438035.7,286047000.4,N
1562438055.5,286047000.2,N
1562438075.4,286047000.5,N
1562438095.2,286046999.9,N
1562438115.0,286047000.0,N
1562438115.9,286047000.0,N
1562438135.8,286047000.9,N
1562438155.6,286046998.5,N
1562438175.4,286046998.1,N
1562438195.3,286047001.0,N
1562438215.1,286046998.7,N
1562438235.9,286046996.7,N
1562438255.7,286046997.6,N
1562438275.5,286046997.6,N
1562438295.4,286046996.8,N
1562438315.2,286046997.4,N
1562438335.0,286046997.1,N
1562438336.0,286046997.1,N
1562438355.8,286046999.4,N
1562438375.6,286046999.6,N
1562438395.5,286046997.3,N
1562438415.3,286046997.3,N
1562438435.1,286046994.9,Y
1562438455.9,286046999.0,P
1562438475.7,286046997.3,P
1562438495.6,286046997.8,N
1562438515.4,286046997.3,Y
1562438535.2,286047000.9,P
1562438555.1,286047001.0,N
1562438556.0,286047001.0,N
1562438575.8,286047002.5,N
1562438595.7,286047001.8,N
1562438615.5,286047002.2,N
1562438635.3,286047001.5,N
1562438655.2,286047002.4,N
1562438675.9,286047000.1,N
1562438695.7,286047002.6,N
1562438715.6,286047000.2,N
1562438735.4,286046999.8,N
1562438755.3,286046999.7,N
1562438775.1,286047002.5,N
1562438776.0,286047002.5,N
1562438795.8,286047000.3,N
1562438815.7,286046999.8,N
1562438835.5,286047002.5,N
1562438855.3,286047002.2,N
1562438875.2,286047002.0,N
1562438895.0,286047002.1,N
1562438895.9,286047002.1,N
1562438915.8,286047002.2,N
1562438935.6,286047001.9,N
1562438955.4,286047001.6,N
1562438975.3,286047001.9,N
1562438995.1,286047001.9,N
1562439015.9,286047003.8,Y
1562439035.7,286047001.7,P
1562439055.5,286047002.5,P
1562439075.4,286047001.5,P
1562439095.3,286047000.0,N
1562439115.1,286046999.8,N
1562439116.0,286046999.8,N
1562439135.8,286047000.6,N
1562439155.7,286046999.8,N
1562439175.5,286047000.4,N
1562439195.3,286046998.4,N
1562439215.2,286046998.6,N
1562439235.0,286047000.4,N
1562439235.9,286047000.4,N
1562439255.8,286047000.6,N
1562439275.6,286047001.2,N
1562439295.4,286047000.8,N
1562439315.3,286047000.6,N
1562439335.1,286046999.8,N
1562439355.8,286047001.8,N
1562439375.7,286047000.4,N
1562439395.5,286047000.7,N
1562439415.4,286047000.7,N
1562439435.2,286047002.7,N
1562439455.0,286047002.4,N
1562439455.9,286047002.4,N
1562439475.8,286047004.0,Y
1562439495.6,286047002.2,P
1562439515.5,286047001.9,N
1562439535.3,286047001.6,N
1562439555.1,286047002.3,Y
1562439575.9,286046998.6,P
1562439595.7,286046999.5,N
